Weather History for Minot AFB, ND

Change the Weather History Date:

Friday, November 23, 2012

  Actual Average Record
Temperature  
Mean Temperature 7 °F -  
Max Temperature 14 °F 30 °F 49 °F (2011)
Min Temperature 2 °F 15 °F -23 °F (2013)
Degree Days  
Heating Degree Days 58    
Moisture  
Dew Point 4 °F    
Average Humidity 79    
Maximum Humidity 85    
Minimum Humidity 71    
Precipitation  
Precipitation 0.00 in - - ()
Sea Level Pressure  
Sea Level Pressure 30.53 in    
Wind  
Wind Speed 12 mph (NW)    
Max Wind Speed 20 mph    
Max Gust Speed -    
Visibility 10 miles    
Events      
Averages and records for this station are not official NWS values.
T = Trace of Precipitation, MM = Missing Value Source: NWS Daily Summary

Daily Weather History Graph

Daily Weather History Graph

Search for Another Location

Airport:

Trip Planner

Search our weather history database for the weather conditions in past years. The results will help you decide how hot, cold, wet, or windy it might be!

Date:

Astronomy

Nov. 23, 2012 Rise Set
Actual Time 8:05 AM CST 4:57 PM CST
Civil Twilight 7:30 AM CST 5:33 PM CST
Nautical Twilight 6:51 AM CST 6:11 PM CST
Astronomical Twilight 6:14 AM CST 6:49 PM CST
Moon 2:30 PM CST (11/23) 3:07 AM CST (11/23)
Length of Visible Light 10h 02m
Length of Day
8h 52m
Waxing Gibbous, 80% of the Moon is Illuminated
Nov 23
Waxing Gibbous
Nov 28
Full
Dec 6
Last Quarter
Dec 13
New
Dec 19
First Quarter

Hourly Weather History & Observations

Time (CST) Temp. Windchill Dew Point Humidity Pressure Visibility Wind Dir Wind Speed Gust Speed Precip Events Conditions
12:55 AM 10.4 °F -8.2 °F 4.8 °F 78% 30.55 in 10.0 mi NW 19.6 mph - N/A   Clear
1:55 AM 9.0 °F -7.3 °F 4.6 °F 83% 30.57 in 10.0 mi NW 13.8 mph - N/A   Clear
2:55 AM 8.6 °F -7.0 °F 3.2 °F 79% 30.58 in 10.0 mi NW 12.7 mph - N/A   Clear
3:55 AM 7.7 °F -10.1 °F 3.0 °F 81% 30.59 in 10.0 mi NW 16.1 mph - N/A   Clear
4:55 AM 7.3 °F -10.6 °F 3.0 °F 82% 30.60 in 10.0 mi NW 16.1 mph - N/A   Scattered Clouds
5:55 AM 6.8 °F -9.3 °F 2.3 °F 82% 30.61 in 10.0 mi NW 12.7 mph - N/A   Clear
6:55 AM 5.7 °F -9.1 °F 1.4 °F 82% 30.61 in 10.0 mi NW 10.4 mph - N/A   Clear
7:47 AM 3.2 °F -11.3 °F -0.4 °F 85% 30.62 in 10.0 mi West 9.2 mph - N/A   Partly Cloudy
7:55 AM 2.5 °F -11.1 °F -1.3 °F 84% 30.62 in 10.0 mi West 8.1 mph - N/A   Scattered Clouds
8:55 AM 4.5 °F -11.5 °F 0.5 °F 84% 30.62 in 10.0 mi WNW 11.5 mph - N/A   Clear
9:55 AM 7.9 °F -8.0 °F 3.0 °F 81% 30.62 in 10.0 mi NW 12.7 mph - N/A   Clear
10:43 AM 8.6 °F -7.0 °F 3.2 °F 79% 30.61 in 10.0 mi NW 12.7 mph - N/A   Partly Cloudy
10:55 AM 9.5 °F -5.9 °F 3.7 °F 77% 30.62 in 10.0 mi NW 12.7 mph - N/A   Partly Cloudy
11:55 AM 10.4 °F -2.4 °F 4.3 °F 76% 30.60 in 10.0 mi NW 9.2 mph - N/A   Partly Cloudy
12:55 PM 11.5 °F 0.9 °F 3.9 °F 72% 30.57 in 10.0 mi WNW 6.9 mph - N/A   Clear
1:55 PM 11.8 °F 5.7 °F 3.9 °F 71% 30.54 in 10.0 mi NW 3.5 mph - N/A   Clear
2:55 PM 12.6 °F 4.8 °F 4.8 °F 71% 30.53 in 10.0 mi NNW 4.6 mph - N/A   Clear
3:55 PM 12.7 °F - 4.8 °F 71% 30.51 in 10.0 mi Calm Calm - N/A   Clear
4:55 PM 10.8 °F 4.5 °F 4.1 °F 75% 30.50 in 10.0 mi East 3.5 mph - N/A   Clear
5:55 PM 9.1 °F 0.8 °F 3.2 °F 77% 30.47 in 10.0 mi ESE 4.6 mph - N/A   Clear
6:55 PM 7.9 °F -7.2 °F 3.0 °F 81% 30.45 in 10.0 mi ESE 11.5 mph - N/A   Overcast
7:55 PM 9.1 °F -4.0 °F 4.3 °F 81% 30.44 in 10.0 mi SE 9.2 mph - N/A   Overcast
8:55 PM 9.9 °F -2.2 °F 5.2 °F 81% 30.40 in 10.0 mi SE 8.1 mph - N/A   Overcast
9:55 PM 10.8 °F -3.6 °F 6.1 °F 81% 30.36 in 10.0 mi SE 11.5 mph - N/A   Overcast
10:55 PM 12.2 °F -4.3 °F 8.1 °F 83% 30.30 in 10.0 mi SE 16.1 mph - N/A   Overcast
11:55 PM 14.4 °F -0.4 °F 10.2 °F 84% 30.25 in 10.0 mi SE 13.8 mph - N/A   Scattered Clouds